When you browse on this site, cookies collect data to enhance your experience and personalize the content and advertising you see.
Visit our Privacy Policy to learn more. By continuing to use the site, you agree to this use of cookies and data.

Hourly Weather Tymchenky

Today, 10 July, Friday

Time Temperature Precipitation Wind Pressure Humidity
00:00 +14°C° 0 mm 1 mps 754 mmHg 85%
01:00 +14°C° 0 mm 1 mps 754 mmHg 86%
02:00 +14°C° 0 mm 1 mps 755 mmHg 87%
03:00 +14°C° 0 mm 1 mps 755 mmHg 87%
04:00 +13°C° 0 mm 0 mps 755 mmHg 86%
05:00 +14°C° 0 mm 0 mps 755 mmHg 85%
06:00 +16°C° 0 mm 1 mps 755 mmHg 80%
07:00 +19°C° 0 mm 1 mps 755 mmHg 74%
08:00 +20°C° 0 mm 2 mps 755 mmHg 68%
09:00 +21°C° 0 mm 2 mps 755 mmHg 64%
10:00 +23°C° 0 mm 2 mps 755 mmHg 60%
11:00 +24°C° 0 mm 2 mps 755 mmHg 57%
12:00 +25°C° 0 mm 2 mps 755 mmHg 54%
13:00 +26°C° 0 mm 2 mps 755 mmHg 52%
14:00 +26°C° 0 mm 2 mps 754 mmHg 50%
15:00 +26°C° 0 mm 2 mps 754 mmHg 51%
16:00 +26°C° 0 mm 2 mps 754 mmHg 52%
17:00 +26°C° 0 mm 2 mps 754 mmHg 53%
18:00 +25°C° 0 mm 2 mps 754 mmHg 58%
19:00 +23°C° 0 mm 2 mps 754 mmHg 63%
20:00 +21°C° 0 mm 2 mps 754 mmHg 68%
21:00 +20°C° 0 mm 3 mps 754 mmHg 69%
22:00 +20°C° 0 mm 3 mps 754 mmHg 71%
23:00 +19°C° 0 mm 3 mps 755 mmHg 72%

Tomorrow, 11 July, Saturday

Time Temperature Precipitation Wind Pressure Humidity
00:00 +19°C° 0 mm 3 mps 755 mmHg 72%
01:00 +19°C° 0 mm 3 mps 755 mmHg 73%
02:00 +18°C° 0 mm 3 mps 755 mmHg 74%
03:00 +18°C° 0 mm 3 mps 755 mmHg 75%
04:00 +18°C° 0 mm 3 mps 755 mmHg 76%
05:00 +18°C° 0 mm 3 mps 755 mmHg 77%
06:00 +20°C° 0 mm 3 mps 755 mmHg 72%
07:00 +23°C° 0 mm 2 mps 755 mmHg 66%
08:00 +25°C° 0 mm 2 mps 755 mmHg 61%
09:00 +26°C° 0 mm 2 mps 755 mmHg 58%
10:00 +27°C° 0 mm 2 mps 755 mmHg 55%
11:00 +28°C° 0 mm 2 mps 755 mmHg 52%
12:00 +28°C° 0 mm 2 mps 754 mmHg 50%
13:00 +29°C° 0 mm 2 mps 754 mmHg 49%
14:00 +29°C° 0 mm 2 mps 754 mmHg 47%
15:00 +29°C° 0 mm 2 mps 753 mmHg 48%
16:00 +29°C° 0 mm 2 mps 753 mmHg 49%
17:00 +29°C° 0 mm 2 mps 753 mmHg 50%
18:00 +27°C° 0 mm 2 mps 753 mmHg 54%
19:00 +25°C° 0 mm 1 mps 753 mmHg 59%
20:00 +23°C° 0 mm 1 mps 753 mmHg 63%
21:00 +23°C° 0 mm 2 mps 753 mmHg 65%
22:00 +21°C° 0 mm 2 mps 753 mmHg 68%
23:00 +20°C° 0 mm 2 mps 753 mmHg 70%

Day after tomorrow, 12 July, Sunday

Time Temperature Precipitation Wind Pressure Humidity
00:00 +20°C° 0 mm 2 mps 753 mmHg 71%
01:00 +19°C° 0 mm 2 mps 752 mmHg 71%
02:00 +19°C° 0 mm 2 mps 752 mmHg 71%
03:00 +19°C° 0 mm 2 mps 752 mmHg 72%
04:00 +18°C° 0 mm 2 mps 752 mmHg 74%
05:00 +18°C° 0 mm 2 mps 751 mmHg 75%
06:00 +20°C° 0 mm 2 mps 751 mmHg 70%
07:00 +23°C° 0 mm 2 mps 751 mmHg 65%
08:00 +24°C° 0 mm 2 mps 751 mmHg 60%
09:00 +26°C° 0 mm 2 mps 751 mmHg 56%
10:00 +27°C° 0 mm 2 mps 751 mmHg 52%
11:00 +28°C° 0 mm 2 mps 751 mmHg 48%
12:00 +28°C° 0 mm 2 mps 750 mmHg 46%
13:00 +29°C° 0 mm 2 mps 750 mmHg 44%
14:00 +29°C° 0 mm 2 mps 750 mmHg 42%
15:00 +29°C° 0 mm 1 mps 749 mmHg 43%
16:00 +29°C° 0 mm 1 mps 749 mmHg 44%
17:00 +29°C° 0 mm 1 mps 748 mmHg 44%
18:00 +27°C° 0 mm 1 mps 748 mmHg 50%
19:00 +25°C° 0 mm 1 mps 748 mmHg 56%
20:00 +23°C° 0 mm 2 mps 748 mmHg 62%
21:00 +23°C° 0 mm 2 mps 748 mmHg 64%
22:00 +21°C° 0 mm 2 mps 748 mmHg 66%
23:00 +21°C° 0 mm 2 mps 747 mmHg 68%

13 July, Monday

Time Temperature Precipitation Wind Pressure Humidity
00:00 +20°C° 0 mm 2 mps 747 mmHg 69%
01:00 +20°C° 0 mm 2 mps 747 mmHg 70%
02:00 +21°C° 0 mm 1 mps 746 mmHg 71%
03:00 +20°C° 0 mm 2 mps 746 mmHg 73%
04:00 +19°C° 0 mm 2 mps 746 mmHg 75%
05:00 +19°C° 0 mm 2 mps 746 mmHg 77%
06:00 +21°C° 0 mm 3 mps 746 mmHg 74%
07:00 +22°C° 0 mm 3 mps 746 mmHg 71%
08:00 +23°C° 0 mm 4 mps 746 mmHg 68%
09:00 +25°C° 0.1 mm 4 mps 746 mmHg 65%
10:00 +26°C° 0.1 mm 4 mps 746 mmHg 62%
11:00 +27°C° 0.1 mm 4 mps 746 mmHg 59%
12:00 +27°C° 0.3 mm 5 mps 746 mmHg 62%
13:00 +26°C° 0.3 mm 6 mps 745 mmHg 65%
14:00 +26°C° 0.3 mm 8 mps 745 mmHg 69%
15:00 +24°C° 0.3 mm 8 mps 745 mmHg 72%
16:00 +22°C° 0.3 mm 8 mps 745 mmHg 75%
17:00 +21°C° 0.3 mm 8 mps 745 mmHg 78%
18:00 +20°C° 0 mm 8 mps 745 mmHg 79%
19:00 +18°C° 0 mm 7 mps 745 mmHg 80%
20:00 +17°C° 0 mm 7 mps 745 mmHg 81%
21:00 +17°C° 0 mm 7 mps 745 mmHg 82%
22:00 +16°C° 0 mm 6 mps 745 mmHg 82%
23:00 +16°C° 0 mm 6 mps 745 mmHg 82%

14 July, Tuesday

Time Temperature Precipitation Wind Pressure Humidity
00:00 +16°C° 0.1 mm 6 mps 745 mmHg 82%
01:00 +15°C° 0.1 mm 6 mps 745 mmHg 83%
02:00 +15°C° 0.1 mm 5 mps 744 mmHg 83%
03:00 +15°C° 0.1 mm 5 mps 744 mmHg 84%
04:00 +15°C° 0.1 mm 5 mps 744 mmHg 85%
05:00 +15°C° 0.1 mm 5 mps 744 mmHg 86%
06:00 +15°C° 0 mm 5 mps 744 mmHg 85%
07:00 +15°C° 0 mm 5 mps 744 mmHg 85%
08:00 +16°C° 0 mm 5 mps 744 mmHg 84%
09:00 +16°C° 0 mm 5 mps 744 mmHg 83%
10:00 +16°C° 0 mm 5 mps 744 mmHg 83%
11:00 +16°C° 0 mm 5 mps 745 mmHg 82%
12:00 +16°C° 0 mm 6 mps 745 mmHg 81%
13:00 +17°C° 0 mm 6 mps 745 mmHg 81%
14:00 +17°C° 0 mm 6 mps 745 mmHg 80%
15:00 +17°C° 0 mm 6 mps 745 mmHg 81%
16:00 +16°C° 0 mm 6 mps 745 mmHg 82%
17:00 +16°C° 0 mm 6 mps 745 mmHg 82%
18:00 +16°C° 0 mm 6 mps 745 mmHg 84%
19:00 +16°C° 0 mm 6 mps 745 mmHg 86%
20:00 +15°C° 0 mm 6 mps 745 mmHg 88%
21:00 +15°C° 0.5 mm 6 mps 746 mmHg 89%
22:00 +15°C° 0.5 mm 6 mps 746 mmHg 91%
23:00 +15°C° 0.5 mm 6 mps 746 mmHg 93%

15 July, Wednesday

Time Temperature Precipitation Wind Pressure Humidity
00:00 +15°C° 0.2 mm 6 mps 746 mmHg 93%
01:00 +14°C° 0.2 mm 6 mps 746 mmHg 93%
02:00 +14°C° 0.2 mm 6 mps 746 mmHg 93%
03:00 +14°C° 0 mm 6 mps 746 mmHg 92%
04:00 +14°C° 0 mm 6 mps 747 mmHg 91%
05:00 +14°C° 0 mm 6 mps 747 mmHg 90%
06:00 +15°C° 0 mm 6 mps 747 mmHg 85%
07:00 +17°C° 0 mm 6 mps 747 mmHg 79%
08:00 +18°C° 0 mm 7 mps 747 mmHg 73%
09:00 +20°C° 0 mm 7 mps 747 mmHg 66%
10:00 +21°C° 0 mm 7 mps 748 mmHg 59%
11:00 +23°C° 0 mm 7 mps 748 mmHg 53%
12:00 +23°C° 0 mm 7 mps 748 mmHg 51%
13:00 +23°C° 0 mm 7 mps 748 mmHg 50%
14:00 +24°C° 0 mm 7 mps 748 mmHg 49%
15:00 +24°C° 0 mm 6 mps 748 mmHg 50%
16:00 +23°C° 0 mm 6 mps 748 mmHg 51%
17:00 +23°C° 0 mm 6 mps 748 mmHg 52%
18:00 +21°C° 0 mm 5 mps 748 mmHg 58%
19:00 +20°C° 0 mm 5 mps 748 mmHg 65%
20:00 +18°C° 0 mm 4 mps 748 mmHg 71%
21:00 +17°C° 0 mm 4 mps 748 mmHg 75%
22:00 +15°C° 0 mm 4 mps 748 mmHg 80%
23:00 +16°C° 0 mm 3 mps 748 mmHg 85%
Show more